CW7283 Weather Reports


time (UTC)temp
F
wind
direction
speed
knots
gust
knots
rain 1hr
in
rain 24hr
in
rain mn
in
humidity
%
barometer
mb
20260510163351 61 90 0.0 1.7 0.00 0.04 0.00 48 1020.2
20260510161831 59 158 0.0 1.7 0.00 0.04 0.00 53 1020.2
20260510160339 58 75 0.0 0.9 0.00 0.04 0.00 54 1020.5
20260510154839 56 134 0.0 1.7 0.00 0.04 0.00 54 1020.6
20260510153353 54 136 0.0 0.9 0.00 0.04 0.00 59 1020.7
20260510151833 52 98 0.0 1.7 0.00 0.04 0.00 65 1020.8
20260510150338 48 42 0.0 0.0 0.00 0.04 0.00 70 1020.8
20260510144828 46 139 0.0 0.9 0.00 0.04 0.00 74 1020.9
20260510143344 43 132 0.0 0.0 0.00 0.04 0.00 80 1020.9
20260510141834 42 128 0.0 0.0 0.00 0.04 0.00 81 1020.8
20260510140333 40 115 0.0 0.0 0.00 0.04 0.00 85 1020.9
20260510134847 39 84 0.0 0.0 0.00 0.04 0.00 87 1020.9
20260510133348 37 80 0.0 0.0 0.00 0.04 0.00 88 1020.9
20260510131843 36 51 0.0 0.0 0.00 0.04 0.00 89 1020.9
20260510130338 35 51 0.0 0.0 0.00 0.04 0.00 91 1020.8
20260510124830 34 51 0.0 0.0 0.00 0.04 0.00 92 1020.7
20260510123327 33 51 0.0 0.0 0.00 0.04 0.00 92 1020.7
20260510121832 32 51 0.0 0.0 0.00 0.04 0.00 93 1020.6
20260510120323 32 51 0.0 0.0 0.00 0.04 0.00 92 1020.6
20260510114825 32 51 0.0 0.0 0.00 0.04 0.00 92 1020.6
20260510113344 32 51 0.0 0.0 0.00 0.04 0.00 92 1020.5
20260510111851 33 51 0.0 0.0 0.00 0.04 0.00 91 1020.5
20260510110332 33 51 0.0 0.0 0.00 0.04 0.00 91 1020.5
20260510104906 33 51 0.0 0.0 0.00 0.04 0.00 91 1020.6
20260510103349 34 51 0.0 0.0 0.00 0.04 0.00 92 1020.5
20260510101836 34 46 0.0 0.0 0.00 0.04 0.00 92 1020.5
20260510100334 34 5 0.0 0.0 0.00 0.04 0.00 90 1020.3
20260510094829 34 346 0.0 0.0 0.00 0.04 0.00 90 1020.4
20260510093329 35 346 0.0 0.0 0.00 0.04 0.00 90 1020.3
20260510091828 35 274 0.0 0.0 0.00 0.04 0.00 89 1020.3
20260510090337 36 289 0.0 0.0 0.00 0.04 0.00 89 1020.3
20260510084838 36 288 0.0 0.0 0.00 0.04 0.00 89 1020.1
20260510083348 37 198 0.0 0.0 0.00 0.04 0.00 88 1020.2
20260510081835 37 198 0.0 0.0 0.00 0.04 0.00 88 1020.3
20260510080340 38 203 0.0 0.0 0.00 0.04 0.00 87 1020.2
20260510074835 38 198 0.0 0.0 0.00 0.04 0.00 88 1020.1
20260510073335 39 198 0.0 0.0 0.00 0.04 0.00 87 1020.2
20260510071843 39 198 0.0 0.0 0.00 0.04 0.00 87 1020.2
20260510070331 40 210 0.0 0.0 0.00 0.04 0.00 87 1020.2
20260510064845 40 210 0.0 0.0 0.00 0.04 0.00 86 1020.4
20260510063327 41 210 0.0 0.0 0.00 0.04 0.00 86 1020.4
20260510061851 41 210 0.0 0.0 0.00 0.04 0.00 85 1020.6
20260510060351 42 165 0.0 0.0 0.00 0.04 0.00 84 1020.6
20260510054837 43 166 0.0 0.0 0.00 0.04 0.04 84 1020.6
20260510053336 44 166 0.0 0.0 0.00 0.04 0.04 82 1020.6
20260510051852 45 166 0.0 0.0 0.00 0.04 0.04 81 1020.6
20260510050331 46 165 0.0 0.0 0.00 0.04 0.04 81 1020.6
20260510044849 46 164 0.0 0.0 0.00 0.04 0.04 81 1020.6
20260510043359 46 164 0.0 0.0 0.00 0.04 0.04 80 1020.7
20260510041840 46 167 0.0 0.0 0.00 0.04 0.04 78 1020.6
20260510040335 47 211 0.0 0.0 0.00 0.04 0.04 77 1020.4
20260510034828 47 223 0.0 0.0 0.00 0.04 0.04 77 1020.6
20260510033357 48 265 0.0 0.0 0.00 0.04 0.04 77 1020.5
20260510031850 48 266 0.0 0.0 0.00 0.04 0.04 75 1020.4
20260510030359 49 276 0.0 0.0 0.00 0.04 0.04 73 1020.2
20260510024830 50 347 0.0 0.0 0.00 0.04 0.04 71 1020.1
20260510023401 50 355 0.0 0.0 0.00 0.04 0.04 68 1019.9
20260510021847 51 5 0.0 0.0 0.00 0.04 0.04 68 1019.6
20260510020343 52 355 0.0 1.7 0.00 0.04 0.04 67 1019.4
20260510014839 53 17 0.0 1.7 0.00 0.04 0.04 64 1019.3
20260510013334 53 309 0.0 0.0 0.00 0.04 0.04 64 1018.9
20260510011829 52 309 0.0 1.7 0.00 0.04 0.04 64 1018.8
20260510010337 52 298 0.0 1.7 0.00 0.04 0.04 63 1018.7
20260510004835 52 294 0.0 1.7 0.00 0.04 0.04 65 1018.6
20260510003340 52 5 0.0 0.0 0.00 0.04 0.04 66 1018.4
20260510001832 52 323 0.0 1.7 0.00 0.04 0.04 65 1018.3
20260510000358 53 291 0.9 4.3 0.00 0.04 0.04 62 1018.3
20260509234827 54 355 0.0 5.2 0.00 0.04 0.04 67 1018.1
20260509233416 52 287 0.0 4.3 0.00 0.04 0.04 67 1018.2
20260509231857 49 313 0.9 6.1 0.00 0.04 0.04 75 1018.3
20260509230329 48 283 0.9 8.7 0.00 0.04 0.04 76 1018.3
20260509224854 49 331 3.5 11.3 0.00 0.04 0.04 73 1018.3
20260509223328 50 308 4.3 16.5 0.00 0.04 0.04 69 1018.1
20260509221828 56 5 0.9 4.3 0.00 0.04 0.04 64 1017.7
20260509220328 57 322 0.9 7.0 0.00 0.04 0.04 64 1017.6
20260509214833 55 315 0.0 4.3 0.01 0.04 0.04 71 1017.7
20260509213355 53 244 0.0 1.7 0.01 0.04 0.04 77 1017.7
20260509211821 54 87 0.0 5.2 0.01 0.04 0.04 80 1017.7
20260509210353 51 274 0.0 3.5 0.01 0.04 0.04 86 1017.7
20260509204840 49 105 0.0 1.7 0.02 0.03 0.03 87 1017.7
20260509203332 49 26 0.0 0.0 0.02 0.03 0.03 85 1017.7
20260509201830 48 312 0.0 0.0 0.02 0.03 0.03 86 1017.7
20260509200347 49 193 0.0 1.7 0.02 0.03 0.03 84 1017.7
20260509194856 53 206 0.0 1.7 0.00 0.01 0.01 77 1017.1
20260509193418 56 42 0.9 2.6 0.00 0.01 0.01 62 1016.5
20260509191854 57 250 0.0 2.6 0.00 0.01 0.01 57 1016.5
20260509190327 56 32 0.9 5.2 0.00 0.01 0.01 62 1016.7
20260509184904 57 238 0.0 3.5 0.00 0.01 0.01 58 1016.7